| time (UTC) | temp F | wind direction | speed knots | gust knots | rain 1hr in | rain 24hr in | rain mn in | humidity % | barometer mb |
| 20260506220011 | 47 | 6 | 0.0 | 2.6 | 0.00 | 0.00 | 0.00 | 70 | 1009.7 |
| 20260506214531 | 48 | 7 | 1.7 | 3.5 | 0.00 | 0.00 | 0.00 | 69 | 1009.7 |
| 20260506213019 | 49 | 13 | 3.5 | 6.1 | 0.00 | 0.00 | 0.00 | 68 | 1009.7 |
| 20260506211552 | 48 | 29 | 0.0 | 2.6 | 0.00 | 0.00 | 0.00 | 70 | 1009.7 |
| 20260506210035 | 48 | 31 | 0.0 | 2.6 | 0.00 | 0.00 | 0.00 | 69 | 1009.7 |
| 20260506204522 | 49 | 87 | 0.0 | 1.7 | 0.00 | 0.00 | 0.00 | 67 | 1009.6 |
| 20260506203025 | 50 | 100 | 0.0 | 2.6 | 0.00 | 0.00 | 0.00 | 64 | 1009.5 |
| 20260506201535 | 52 | 100 | 0.0 | 3.5 | 0.00 | 0.00 | 0.00 | 60 | 1009.5 |
| 20260506200047 | 54 | 116 | 0.0 | 0.0 | 0.00 | 0.00 | 0.00 | 55 | 1009.3 |
| 20260506194530 | 58 | 116 | 0.0 | 0.0 | 0.00 | 0.00 | 0.00 | 44 | 1009.3 |
| 20260506193021 | 58 | 116 | 0.0 | 0.0 | 0.00 | 0.00 | 0.00 | 44 | 1009.2 |
| 20260506191507 | 58 | 116 | 0.0 | 0.0 | 0.00 | 0.00 | 0.00 | 43 | 1009.2 |
| 20260506190058 | 59 | 116 | 0.0 | 3.5 | 0.00 | 0.00 | 0.00 | 42 | 1009.1 |
| 20260506184520 | 60 | 118 | 1.7 | 4.3 | 0.00 | 0.00 | 0.00 | 40 | 1009.1 |
| 20260506183016 | 60 | 125 | 1.7 | 5.2 | 0.00 | 0.00 | 0.00 | 39 | 1009.0 |
| 20260506181552 | 61 | 122 | 2.6 | 5.2 | 0.00 | 0.00 | 0.00 | 39 | 1008.9 |
| 20260506180049 | 61 | 117 | 2.6 | 6.1 | 0.00 | 0.00 | 0.00 | 38 | 1009.0 |
| 20260506174508 | 62 | 121 | 0.9 | 7.8 | 0.00 | 0.00 | 0.00 | 39 | 1009.0 |
| 20260506173108 | 63 | 137 | 1.7 | 5.2 | 0.00 | 0.00 | 0.00 | 38 | 1009.0 |
| 20260506171506 | 62 | 111 | 0.0 | 6.1 | 0.00 | 0.00 | 0.00 | 39 | 1009.1 |
| 20260506170107 | 62 | 73 | 0.0 | 5.2 | 0.00 | 0.00 | 0.00 | 38 | 1009.1 |
| 20260506164508 | 62 | 158 | 1.7 | 6.1 | 0.00 | 0.00 | 0.00 | 37 | 1009.2 |
| 20260506163002 | 64 | 118 | 2.6 | 7.8 | 0.00 | 0.00 | 0.00 | 37 | 1009.2 |
| 20260506161516 | 63 | 14 | 0.0 | 7.0 | 0.00 | 0.00 | 0.00 | 38 | 1009.2 |
| 20260506160011 | 63 | 159 | 3.5 | 8.7 | 0.00 | 0.00 | 0.00 | 37 | 1009.3 |
| 20260506154532 | 65 | 11 | 0.9 | 8.7 | 0.00 | 0.00 | 0.00 | 38 | 1009.4 |
| 20260506153020 | 64 | 100 | 1.7 | 6.1 | 0.00 | 0.00 | 0.00 | 39 | 1009.5 |
| 20260506151602 | 63 | 115 | 0.9 | 7.8 | 0.00 | 0.00 | 0.00 | 39 | 1009.6 |
| 20260506151506 | 63 | 110 | 0.9 | 7.8 | 0.00 | 0.00 | 0.00 | 38 | 1009.6 |
| 20260506150046 | 63 | 212 | 0.9 | 7.8 | 0.00 | 0.00 | 0.00 | 39 | 1009.8 |
| 20260506144514 | 62 | 176 | 4.3 | 9.6 | 0.00 | 0.00 | 0.00 | 41 | 1010.0 |
| 20260506143004 | 63 | 217 | 1.7 | 7.8 | 0.00 | 0.00 | 0.00 | 42 | 1010.2 |
| 20260506141540 | 62 | 227 | 2.6 | 8.7 | 0.00 | 0.00 | 0.00 | 41 | 1010.3 |
| 20260506140022 | 62 | 183 | 5.2 | 9.6 | 0.00 | 0.00 | 0.00 | 43 | 1010.5 |
| 20260506134536 | 63 | 139 | 1.7 | 5.2 | 0.00 | 0.00 | 0.00 | 44 | 1010.6 |
| 20260506133029 | 60 | 210 | 3.5 | 8.7 | 0.00 | 0.00 | 0.00 | 43 | 1010.7 |
| 20260506131547 | 61 | 271 | 0.0 | 5.2 | 0.00 | 0.00 | 0.00 | 47 | 1010.8 |
| 20260506130036 | 60 | 140 | 0.0 | 7.0 | 0.00 | 0.00 | 0.00 | 48 | 1011.0 |
| 20260506124557 | 60 | 154 | 4.3 | 9.6 | 0.00 | 0.00 | 0.00 | 47 | 1011.1 |
| 20260506123036 | 62 | 150 | 1.7 | 6.1 | 0.00 | 0.00 | 0.00 | 47 | 1011.2 |
| 20260506121553 | 59 | 100 | 3.5 | 7.0 | 0.00 | 0.00 | 0.00 | 48 | 1011.3 |
| 20260506120045 | 59 | 141 | 0.9 | 7.0 | 0.00 | 0.00 | 0.00 | 52 | 1011.4 |
| 20260506114508 | 59 | 144 | 4.3 | 10.4 | 0.00 | 0.00 | 0.00 | 50 | 1011.6 |
| 20260506113057 | 58 | 92 | 0.9 | 6.1 | 0.00 | 0.00 | 0.00 | 47 | 1011.7 |
| 20260506111535 | 58 | 75 | 0.9 | 7.0 | 0.00 | 0.00 | 0.00 | 51 | 1011.8 |
| 20260506110021 | 58 | 99 | 0.9 | 8.7 | 0.00 | 0.00 | 0.00 | 52 | 1011.9 |
| 20260506104538 | 57 | 173 | 0.9 | 8.7 | 0.00 | 0.00 | 0.00 | 55 | 1012.0 |
| 20260506103025 | 55 | 150 | 0.0 | 6.1 | 0.00 | 0.00 | 0.00 | 55 | 1012.1 |
| 20260506101541 | 56 | 110 | 3.5 | 7.0 | 0.00 | 0.00 | 0.00 | 58 | 1012.1 |
| 20260506100029 | 56 | 177 | 1.7 | 6.1 | 0.00 | 0.00 | 0.00 | 56 | 1012.3 |
| 20260506094539 | 55 | 162 | 2.6 | 8.7 | 0.00 | 0.00 | 0.00 | 57 | 1012.2 |
| 20260506093029 | 54 | 103 | 1.7 | 5.2 | 0.00 | 0.00 | 0.00 | 60 | 1012.2 |
| 20260506091545 | 54 | 179 | 2.6 | 7.0 | 0.00 | 0.00 | 0.00 | 61 | 1012.2 |
| 20260506090041 | 53 | 102 | 0.9 | 4.3 | 0.00 | 0.00 | 0.00 | 64 | 1012.2 |
| 20260506084609 | 53 | 218 | 2.6 | 5.2 | 0.00 | 0.00 | 0.00 | 64 | 1012.2 |
| 20260506083041 | 53 | 117 | 2.6 | 4.3 | 0.00 | 0.00 | 0.00 | 65 | 1012.2 |
| 20260506081547 | 51 | 119 | 2.6 | 5.2 | 0.00 | 0.00 | 0.00 | 64 | 1012.2 |
| 20260506073035 | 49 | 146 | 0.0 | 4.3 | 0.00 | 0.00 | 0.00 | 69 | 1012.1 |
| 20260506071527 | 49 | 141 | 1.7 | 4.3 | 0.00 | 0.00 | 0.00 | 69 | 1012.1 |
| 20260506061546 | 42 | 8 | 1.7 | 3.5 | 0.00 | 0.00 | 0.00 | 85 | 1011.8 |
| 20260506050109 | 38 | 8 | 0.0 | 0.0 | 0.00 | 0.00 | 0.00 | 86 | 1011.3 |
| 20260506044545 | 39 | 8 | 0.9 | 3.5 | 0.00 | 0.00 | 0.00 | 86 | 1011.3 |
| 20260506043036 | 38 | 8 | 0.0 | 0.0 | 0.00 | 0.00 | 0.00 | 85 | 1011.2 |
| 20260506041553 | 39 | 8 | 0.0 | 0.0 | 0.00 | 0.00 | 0.00 | 85 | 1011.3 |
| 20260506040100 | 39 | 8 | 0.0 | 2.6 | 0.00 | 0.00 | 0.00 | 84 | 1011.3 |
| 20260506034510 | 39 | 8 | 0.0 | 3.5 | 0.00 | 0.00 | 0.00 | 84 | 1011.3 |
| 20260506033004 | 40 | 8 | 2.6 | 5.2 | 0.00 | 0.00 | 0.00 | 85 | 1011.4 |
| 20260506031522 | 39 | 5 | 0.0 | 1.7 | 0.00 | 0.00 | 0.00 | 85 | 1011.3 |
| 20260506030007 | 39 | 90 | 0.0 | 2.6 | 0.00 | 0.00 | 0.00 | 85 | 1011.3 |
| 20260506024554 | 39 | 90 | 0.0 | 0.0 | 0.00 | 0.00 | 0.00 | 85 | 1011.2 |
| 20260506023033 | 40 | 90 | 0.9 | 2.6 | 0.00 | 0.00 | 0.00 | 82 | 1011.2 |
| 20260506021607 | 41 | 90 | 1.7 | 2.6 | 0.00 | 0.00 | 0.00 | 82 | 1011.2 |
| 20260506020053 | 40 | 90 | 0.0 | 0.0 | 0.00 | 0.00 | 0.00 | 82 | 1011.2 |
| 20260506014508 | 41 | 90 | 0.0 | 0.0 | 0.00 | 0.00 | 0.00 | 80 | 1011.4 |
| 20260506013055 | 42 | 90 | 0.0 | 1.7 | 0.00 | 0.00 | 0.00 | 78 | 1011.4 |
| 20260506011608 | 44 | 118 | 0.9 | 2.6 | 0.00 | 0.00 | 0.00 | 74 | 1011.4 |
| 20260506010042 | 46 | 120 | 0.0 | 2.6 | 0.00 | 0.00 | 0.00 | 72 | 1011.3 |
| 20260506004553 | 46 | 123 | 0.9 | 5.2 | 0.00 | 0.00 | 0.00 | 71 | 1011.4 |
| 20260506004505 | 46 | 123 | 0.9 | 5.2 | 0.00 | 0.00 | 0.00 | 70 | 1011.4 |
| 20260506003052 | 47 | 142 | 0.0 | 5.2 | 0.00 | 0.00 | 0.00 | 67 | 1011.4 |
| 20260506001555 | 46 | 66 | 0.0 | 2.6 | 0.00 | 0.00 | 0.00 | 67 | 1011.5 |
| 20260506001504 | 46 | 66 | 0.0 | 2.6 | 0.00 | 0.00 | 0.00 | 67 | 1011.5 |
| 20260506000055 | 45 | 39 | 0.0 | 0.0 | 0.00 | 0.00 | 0.00 | 70 | 1011.5 |
| 20260505234542 | 45 | 37 | 0.0 | 2.6 | 0.00 | 0.00 | 0.00 | 72 | 1011.4 |
| 20260505233032 | 44 | 37 | 0.0 | 0.0 | 0.00 | 0.00 | 0.00 | 72 | 1011.4 |
| 20260505231603 | 45 | 37 | 0.0 | 2.6 | 0.00 | 0.00 | 0.00 | 69 | 1011.3 |
| 20260505230043 | 45 | 37 | 0.0 | 3.5 | 0.00 | 0.00 | 0.00 | 69 | 1011.3 |
| 20260505224550 | 48 | 34 | 0.0 | 1.7 | 0.00 | 0.00 | 0.00 | 64 | 1011.3 |
| 20260505223102 | 47 | 34 | 0.0 | 5.2 | 0.00 | 0.00 | 0.00 | 65 | 1011.3 |
| 20260505221514 | 49 | 325 | 3.5 | 5.2 | 0.00 | 0.00 | 0.00 | 62 | 1011.3 |